Wind_Speed
14 14 13 13 14 15 17 19 20 21 23 23 23 21 18 17 18 19 20 19 18 17 18 19 19 19 17 16 15 14 14 14 15 14 14 14 14 15 15 16 17 17 17
18 17 16 16 17 18 20 21 23 23 24 24 24 23 21 19 19 20 21 22 21 19 19 20 20 20 20 19 18 16 15 16 16 16 16 15 14 15 17 17 18 18 18
21 21 21 20 21 22 23 24 25 25 26 26 26 25 25 23 22 22 22 23 23 22 22 22 22 22 22 21 21 20 18 17 17 18 18 18 16 16 17 18 18 19 20
25 24 24 24 24 25 26 27 27 27 28 28 28 28 27 26 25 24 24 24 25 25 25 25 26 25 24 23 23 22 21 19 19 19 20 20 18 18 18 19 20 20 20
29 28 27 28 28 28 29 30 30 31 31 32 31 30 30 29 28 26 25 26 27 28 27 27 27 27 26 25 24 23 22 21 20 21 21 20 19 19 19 20 21 21 20
34 32 31 32 32 33 34 35 36 37 36 36 35 33 32 32 31 29 29 29 29 30 30 29 28 28 28 26 25 24 23 23 22 22 22 20 20 20 20 20 22 22 21
39 37 35 35 35 36 37 39 40 41 40 41 40 37 34 34 33 33 33 33 32 33 32 31 31 30 29 28 26 25 25 24 24 24 23 21 20 20 21 21 22 23 22
40 39 37 36 36 37 38 40 41 42 42 43 43 42 37 35 37 36 36 35 35 35 35 34 33 32 32 29 27 26 26 25 25 25 25 23 22 22 22 22 23 22 22
39 38 36 34 34 36 38 40 42 42 42 42 43 43 41 37 38 38 37 37 37 37 37 36 34 33 33 31 29 28 28 27 26 27 27 26 25 24 23 23 23 23 21
38 36 33 33 34 36 38 39 41 42 41 40 41 42 42 39 37 35 37 37 37 37 37 35 33 33 33 33 31 30 30 29 28 29 29 28 27 26 25 24 24 23 21
34 33 33 34 36 36 37 39 41 42 42 41 40 40 39 37 35 33 32 34 35 36 36 35 35 35 34 33 33 32 32 32 31 31 31 29 28 27 26 25 24 24 22
33 33 34 36 37 37 38 40 41 41 41 39 37 36 34 33 31 31 31 32 34 36 37 37 37 37 36 35 34 33 33 32 32 32 31 30 29 27 26 25 24 24 23
34 35 37 38 39 39 40 41 40 39 36 34 33 31 31 30 30 32 33 34 36 36 38 38 37 37 37 36 35 34 33 33 33 33 33 32 30 29 27 26 24 24 23
36 38 40 41 41 41 40 39 37 34 32 30 29 29 29 28 30 32 34 36 38 38 38 39 38 37 37 37 36 35 35 35 35 35 34 33 31 29 28 27 25 23 22
39 41 42 41 40 38 36 33 31 29 28 26 26 26 27 28 29 31 33 35 37 38 39 39 38 38 38 37 37 37 36 37 36 35 34 32 30 29 28 26 24 23 22
41 41 39 36 34 33 31 30 28 27 25 24 24 24 25 26 28 30 32 34 35 36 38 38 39 39 38 37 36 36 36 36 34 32 31 29 28 27 27 26 24 23 22
37 34 32 32 31 31 30 29 27 26 24 23 23 23 24 25 26 26 28 31 33 36 38 38 39 38 37 35 34 34 33 32 30 28 27 27 27 27 26 25 24 23 22
31 31 31 31 31 30 30 29 28 26 25 25 24 24 24 24 25 25 24 23 26 29 31 31 33 34 34 32 31 29 27 26 25 25 25 25 26 25 24 22 21 21 22
30 31 31 30 29 29 29 29 29 28 27 26 26 26 27 26 26 25 24 22 21 21 23 24 25 26 27 28 29 27 23 21 22 24 24 24 24 23 22 21 20 21 21
29 29 29 29 29 29 29 29 29 29 28 27 27 28 29 30 29 28 27 25 23 21 20 20 19 19 20 21 23 22 20 19 19 20 22 22 21 21 21 20 21 21 22
29 29 29 28 28 28 28 28 29 29 28 27 27 28 30 30 31 31 31 30 28 26 24 23 21 19 17 16 17 18 19 19 20 20 21 22 21 21 21 20 20 21 22
29 29 28 28 28 28 28 28 28 27 27 27 28 28 29 30 30 31 32 32 32 30 29 28 26 24 22 20 19 19 20 21 23 24 24 23 22 21 21 20 20 21 22
28 28 28 28 28 28 28 27 27 27 26 26 26 26 27 29 30 30 31 32 32 33 32 32 31 30 29 27 25 24 24 24 25 25 26 26 25 24 24 23 22 23 23
28 27 27 27 27 27 26 25 24 24 24 25 26 27 27 28 29 29 30 31 32 33 34 34 34 34 34 33 32 31 30 29 28 28 28 28 29 28 27 26 25 25 25
24 23 22 22 22 21 21 21 21 22 23 24 25 25 26 27 27 28 28 29 30 32 34 36 37 37 38 38 38 37 35 34 34 34 32 31 29 29 30 29 28 28 28
16 16 16 16 17 18 18 19 19 20 20 20 21 22 23 24 25 25 26 27 28 29 31 34 36 38 39 41 41 42 41 39 38 38 39 38 36 34 33 33 32 32 32
Wind_Direction
284 286 289 295 301 308 317 325 332 338 337 333 329 329 325 306 291 281 275 272 273 277 280 283 286 287 290 294 294 289 286 289 291 287 284 282 280 280 280 276 275 277 276
280 281 284 287 293 300 308 316 322 328 331 329 325 320 316 309 296 284 277 272 271 274 278 280 282 282 283 285 286 285 282 282 287 288 287 287 285 284 285 283 279 276 275
286 287 288 290 294 298 302 308 313 318 322 322 319 316 312 306 300 291 283 277 273 272 274 277 280 279 278 278 278 279 278 278 283 286 287 288 289 290 289 286 283 280 276
290 290 291 293 296 298 299 302 306 309 311 313 312 309 306 304 300 294 286 280 276 273 272 275 278 278 276 275 273 273 273 275 280 282 284 285 287 291 291 288 285 282 279
289 290 291 293 295 296 296 297 299 301 303 304 305 303 300 298 297 293 285 278 275 274 274 274 275 276 275 274 271 268 267 270 277 281 281 280 281 287 290 288 286 285 284
284 285 287 289 291 293 294 294 294 296 298 298 298 297 295 293 292 289 283 278 274 273 274 274 273 274 275 273 270 264 261 265 273 279 279 277 278 282 287 287 285 284 283
281 281 283 286 289 291 292 292 292 294 295 295 294 293 292 290 288 283 279 277 274 272 272 273 272 274 276 275 270 263 258 260 268 274 276 274 275 277 280 283 283 283 281
279 280 281 285 288 289 289 290 291 293 294 294 293 292 291 288 285 280 276 274 272 271 272 273 273 273 272 273 271 263 256 258 265 271 273 273 272 272 274 278 280 280 279
277 280 282 285 286 286 287 289 291 292 292 292 292 292 291 288 284 281 276 270 268 269 270 273 274 272 270 269 268 263 258 258 263 268 271 272 271 269 269 272 275 275 275
275 279 281 282 282 284 286 288 289 290 291 291 291 291 290 288 284 279 274 269 266 267 269 271 273 272 268 265 264 262 259 259 262 264 266 270 271 268 265 267 270 270 269
274 277 278 279 282 284 286 288 290 291 292 292 292 292 290 288 284 279 271 267 265 265 265 267 269 270 266 262 262 263 261 260 259 259 261 266 268 265 262 262 265 264 264
273 274 276 279 282 285 287 290 292 293 294 293 293 292 289 285 280 274 269 263 263 263 263 264 265 268 267 263 262 262 261 259 257 256 257 261 264 263 260 259 260 259 259
269 273 277 280 282 284 288 291 293 294 293 292 292 292 289 283 276 270 265 262 261 262 263 264 265 267 267 264 262 261 260 258 257 255 256 258 261 260 257 256 256 256 255
268 273 278 280 282 284 288 291 293 291 291 290 290 290 286 281 276 270 266 262 261 261 262 264 265 267 266 264 262 260 258 259 259 256 255 256 258 257 254 253 253 254 253
269 274 278 280 281 283 287 290 290 288 288 287 287 287 285 281 277 272 268 265 263 261 261 263 265 266 266 265 261 259 258 258 257 255 253 252 253 254 251 251 253 253 250
271 276 277 278 280 283 286 286 285 284 282 281 284 285 285 282 279 275 270 266 264 262 262 262 264 267 267 266 261 256 254 252 249 248 248 248 249 249 249 250 252 252 248
271 273 275 278 280 282 283 282 281 280 277 276 278 282 284 286 286 285 279 270 264 262 262 262 262 264 263 261 256 249 244 243 241 242 243 244 246 247 248 249 249 249 246
270 273 276 277 278 279 279 278 277 277 274 273 273 277 281 285 290 291 293 288 276 268 263 263 261 259 255 250 242 236 236 235 237 239 240 243 246 248 247 246 247 246 244
271 272 273 274 275 277 277 275 274 274 273 272 271 272 274 279 283 286 289 291 293 286 275 268 260 252 244 238 233 231 232 233 237 241 241 243 246 247 246 245 246 244 243
268 269 270 272 274 274 275 274 273 272 272 272 271 270 270 273 276 277 280 281 284 289 287 277 266 257 248 240 236 235 236 238 242 246 246 245 246 249 247 246 246 244 242
267 269 271 273 273 274 274 274 274 272 271 271 271 270 270 270 272 272 273 273 274 276 279 281 279 272 264 252 246 246 248 250 249 248 249 248 249 251 251 248 247 244 242
269 271 272 272 273 273 274 274 273 272 272 272 271 271 271 271 271 270 269 269 269 270 271 272 272 272 268 261 255 252 252 253 250 249 249 251 253 254 253 250 247 246 245
272 274 274 273 274 275 275 274 274 274 273 273 273 273 273 272 271 269 268 268 267 267 268 268 267 266 265 261 257 253 251 250 250 250 249 248 252 255 253 251 251 250 249
273 273 273 275 276 276 276 276 275 275 275 275 274 273 273 273 271 270 269 269 268 267 267 266 266 265 263 261 258 254 251 248 247 246 247 249 250 252 250 252 253 252 249
273 276 276 275 278 279 279 279 279 278 276 275 274 272 272 271 270 269 269 268 267 266 265 264 263 262 261 259 257 255 252 248 245 243 244 246 248 250 251 251 251 250 246
275 275 276 277 279 281 283 284 284 282 279 276 274 272 270 270 269 269 269 267 266 265 264 263 262 261 259 258 257 255 254 252 248 243 241 242 243 244 246 246 247 247 246
Height
5904 5903 5902 5901 5899 5898 5897 5895 5893 5891 5890 5888 5886 5884 5883 5882 5882 5882 5881 5881 5881 5880 5879 5879 5878 5878 5877 5876 5875 5874 5873 5872 5871 5871 5870 5869 5868 5867 5867 5866 5866 5865 5865
5900 5899 5898 5897 5895 5893 5892 5891 5889 5888 5886 5884 5883 5881 5880 5878 5878 5877 5877 5876 5876 5875 5875 5875 5874 5874 5873 5873 5872 5871 5870 5869 5868 5867 5866 5865 5865 5864 5863 5863 5862 5861 5861
5895 5894 5893 5891 5890 5889 5887 5886 5885 5884 5882 5880 5878 5877 5875 5874 5873 5872 5871 5871 5870 5870 5870 5870 5870 5869 5868 5868 5867 5867 5866 5865 5864 5863 5862 5861 5860 5860 5859 5858 5858 5857 5857
5889 5888 5887 5886 5885 5883 5882 5881 5879 5878 5877 5875 5874 5872 5870 5869 5867 5866 5865 5864 5864 5865 5865 5865 5864 5864 5863 5863 5862 5862 5862 5860 5859 5858 5858 5857 5856 5855 5854 5853 5853 5852 5852
5882 5881 5880 5879 5878 5877 5876 5874 5873 5872 5871 5869 5868 5867 5865 5863 5861 5860 5859 5858 5858 5858 5858 5858 5858 5858 5857 5857 5857 5857 5857 5856 5855 5854 5853 5852 5851 5851 5849 5848 5848 5847 5847
5874 5874 5873 5871 5870 5869 5868 5866 5865 5864 5863 5861 5861 5861 5859 5857 5855 5853 5852 5851 5851 5851 5851 5851 5851 5851 5851 5850 5850 5850 5850 5850 5850 5849 5848 5847 5846 5846 5845 5844 5843 5842 5842
5864 5865 5864 5863 5862 5861 5859 5857 5856 5856 5855 5852 5852 5852 5852 5850 5848 5846 5844 5843 5843 5844 5844 5844 5844 5844 5843 5843 5843 5843 5844 5844 5844 5844 5843 5842 5841 5840 5840 5839 5838 5837 5837
5855 5855 5854 5854 5853 5852 5851 5848 5847 5847 5846 5843 5841 5841 5843 5842 5839 5837 5836 5835 5835 5835 5836 5836 5835 5835 5835 5835 5836 5836 5837 5837 5838 5838 5838 5837 5836 5835 5835 5834 5833 5832 5832
5845 5845 5844 5844 5844 5843 5842 5840 5838 5837 5836 5834 5831 5830 5830 5832 5829 5828 5826 5826 5825 5826 5827 5827 5827 5827 5827 5827 5828 5828 5829 5830 5831 5831 5831 5831 5831 5830 5829 5828 5828 5827 5827
5835 5835 5836 5836 5836 5835 5833 5832 5829 5828 5826 5825 5822 5819 5818 5818 5818 5818 5816 5816 5816 5816 5817 5818 5818 5818 5818 5819 5820 5820 5821 5823 5824 5825 5825 5825 5824 5824 5823 5823 5822 5822 5821
5826 5827 5827 5827 5827 5826 5824 5823 5820 5818 5816 5815 5812 5809 5807 5806 5806 5806 5806 5806 5806 5807 5808 5808 5809 5809 5809 5810 5811 5812 5813 5814 5816 5817 5817 5818 5818 5817 5817 5816 5816 5816 5816
5818 5818 5818 5818 5817 5816 5815 5813 5811 5808 5806 5804 5802 5800 5798 5796 5796 5795 5796 5797 5797 5797 5798 5799 5800 5800 5800 5801 5802 5803 5804 5805 5806 5808 5809 5810 5810 5810 5810 5810 5810 5810 5810
5808 5809 5809 5808 5808 5807 5806 5804 5801 5799 5797 5795 5793 5791 5789 5788 5787 5786 5787 5787 5788 5788 5789 5790 5790 5790 5790 5791 5792 5794 5795 5795 5796 5798 5800 5801 5802 5802 5802 5803 5804 5804 5804
5798 5799 5799 5798 5798 5797 5796 5794 5792 5791 5789 5787 5785 5783 5781 5779 5778 5778 5778 5778 5779 5779 5780 5780 5780 5781 5782 5782 5783 5784 5785 5786 5787 5789 5790 5792 5793 5794 5795 5796 5797 5798 5798
5788 5788 5789 5789 5788 5788 5786 5785 5783 5782 5781 5779 5778 5775 5773 5772 5770 5769 5769 5769 5769 5769 5770 5770 5771 5771 5772 5772 5773 5775 5775 5776 5778 5779 5781 5783 5785 5786 5787 5789 5790 5791 5792
5778 5779 5779 5779 5778 5778 5777 5776 5775 5774 5773 5772 5771 5769 5767 5765 5763 5762 5760 5760 5759 5760 5760 5760 5761 5762 5762 5763 5764 5765 5766 5767 5768 5770 5772 5774 5776 5778 5779 5781 5783 5784 5786
5769 5769 5769 5769 5769 5769 5769 5768 5768 5767 5766 5765 5764 5763 5761 5760 5758 5755 5753 5752 5751 5751 5750 5751 5752 5752 5753 5753 5755 5755 5756 5757 5759 5761 5764 5766 5768 5770 5772 5774 5776 5777 5779
5760 5760 5760 5760 5760 5760 5760 5760 5760 5760 5759 5758 5757 5756 5755 5754 5752 5750 5748 5745 5743 5742 5742 5741 5742 5743 5743 5744 5746 5747 5748 5750 5752 5754 5756 5758 5760 5762 5764 5766 5768 5771 5772
5751 5752 5752 5752 5752 5751 5752 5752 5752 5751 5751 5750 5749 5748 5748 5747 5746 5745 5743 5741 5738 5736 5735 5734 5734 5734 5735 5736 5738 5739 5741 5742 5745 5747 5749 5751 5753 5755 5757 5759 5762 5764 5766
5743 5743 5743 5743 5743 5743 5743 5743 5743 5742 5742 5741 5740 5740 5739 5739 5738 5738 5736 5735 5733 5732 5730 5729 5729 5728 5728 5729 5731 5732 5734 5736 5739 5741 5743 5745 5747 5749 5751 5753 5755 5757 5759
5735 5735 5735 5735 5735 5734 5734 5734 5734 5733 5733 5732 5732 5731 5730 5730 5729 5729 5728 5728 5727 5726 5726 5725 5724 5724 5724 5724 5725 5727 5728 5730 5733 5735 5737 5739 5741 5743 5744 5746 5748 5750 5752
5727 5727 5726 5726 5726 5726 5726 5726 5725 5725 5724 5724 5723 5723 5722 5721 5721 5720 5720 5719 5719 5719 5719 5719 5719 5719 5719 5720 5720 5722 5723 5725 5727 5730 5731 5733 5735 5736 5738 5740 5742 5744 5746
5718 5718 5718 5718 5718 5718 5718 5718 5717 5717 5716 5716 5715 5715 5714 5713 5712 5711 5711 5710 5710 5710 5711 5711 5711 5712 5713 5713 5714 5716 5717 5719 5721 5723 5725 5726 5728 5729 5731 5733 5735 5737 5739
5711 5710 5710 5710 5710 5710 5710 5709 5709 5709 5709 5708 5707 5707 5706 5705 5704 5703 5702 5702 5701 5701 5701 5702 5702 5703 5704 5705 5706 5708 5710 5712 5714 5715 5717 5718 5719 5721 5723 5725 5727 5729 5731
5703 5703 5703 5703 5703 5703 5703 5702 5702 5702 5701 5701 5700 5699 5698 5697 5696 5695 5694 5693 5692 5692 5692 5692 5692 5692 5693 5695 5696 5698 5700 5702 5704 5706 5708 5710 5710 5712 5714 5717 5719 5721 5723
5698 5698 5698 5698 5698 5698 5697 5696 5696 5695 5694 5694 5693 5692 5690 5689 5688 5687 5686 5685 5684 5683 5682 5682 5681 5681 5682 5683 5684 5686 5688 5691 5693 5695 5698 5701 5702 5704 5706 5707 5710 5712 5714